Wetterdaten: Freitag, 10.07.2015
Datum Zeit Temp. A. Feuchte A. Luftdruck Regen Wind Richtung Richtung Sonnenschein ET UV Solar Taupunkt Windchill Windben Empfang
10.07.2015 00:00 12,2 C 88 % 1022,1 hPa 0,0 l/m 0,0 km/h (0 Bft) N 352 0 min 0,000 mm 0,0 UV-I 0 W/m 10,3 C 12,2 C 0,0 km/h (0 Bft) 0,00 %
10.07.2015 00:05 12,2 C 88 % 1022,1 hPa 0,0 l/m 0,0 km/h (0 Bft) O-NO 62 0 min 0,000 mm 0,0 UV-I 0 W/m 10,3 C 12,2 C 0,0 km/h (0 Bft) 0,00 %
10.07.2015 00:10 12,1 C 88 % 1022,1 hPa 0,0 l/m 0,0 km/h (0 Bft) O-SO 111 0 min 0,000 mm 0,0 UV-I 0 W/m 10,2 C 12,1 C 0,0 km/h (0 Bft) 0,00 %
10.07.2015 00:15 12,1 C 88 % 1022,2 hPa 0,0 l/m 0,0 km/h (0 Bft) N-NO 30 0 min 0,000 mm 0,0 UV-I 0 W/m 10,2 C 12,1 C 0,0 km/h (0 Bft) 0,00 %
10.07.2015 00:20 12,2 C 88 % 1022,0 hPa 0,0 l/m 0,7 km/h (0 Bft) W 280 0 min 0,000 mm 0,0 UV-I 0 W/m 10,3 C 12,2 C 4,0 km/h (1 Bft) 0,00 %
10.07.2015 00:25 12,1 C 88 % 1022,0 hPa 0,0 l/m 0,0 km/h (0 Bft) NO 42 0 min 0,000 mm 0,0 UV-I 0 W/m 10,2 C 12,1 C 0,0 km/h (0 Bft) 0,00 %
10.07.2015 00:30 12,1 C 88 % 1022,0 hPa 0,0 l/m 0,0 km/h (0 Bft) N 351 0 min 0,000 mm 0,0 UV-I 0 W/m 10,2 C 12,1 C 0,0 km/h (0 Bft) 0,00 %
10.07.2015 00:35 12,1 C 88 % 1022,4 hPa 0,0 l/m 0,4 km/h (0 Bft) W-SW 256 0 min 0,000 mm 0,0 UV-I 0 W/m 10,2 C 12,1 C 4,0 km/h (1 Bft) 0,00 %
10.07.2015 00:40 12,0 C 88 % 1022,2 hPa 0,0 l/m 0,4 km/h (0 Bft) NW 325 0 min 0,000 mm 0,0 UV-I 0 W/m 10,1 C 12,0 C 4,0 km/h (1 Bft) 0,00 %
10.07.2015 00:45 12,0 C 88 % 1022,2 hPa 0,0 l/m 0,0 km/h (0 Bft) NO 56 0 min 0,000 mm 0,0 UV-I 0 W/m 10,1 C 12,0 C 0,0 km/h (0 Bft) 0,00 %
10.07.2015 00:50 11,9 C 88 % 1022,2 hPa 0,0 l/m 0,0 km/h (0 Bft) N-NO 16 0 min 0,000 mm 0,0 UV-I 0 W/m 10,0 C 11,9 C 0,0 km/h (0 Bft) 0,00 %
10.07.2015 00:55 11,8 C 88 % 1022,1 hPa 0,0 l/m 0,7 km/h (0 Bft) S 172 0 min 0,000 mm 0,0 UV-I 0 W/m 9,9 C 11,8 C 4,0 km/h (1 Bft) 0,00 %
10.07.2015 01:00 11,7 C 89 % 1022,2 hPa 0,0 l/m 0,7 km/h (0 Bft) W-SW 256 0 min 0,000 mm 0,0 UV-I 0 W/m 9,9 C 11,7 C 4,0 km/h (1 Bft) 0,00 %
10.07.2015 01:05 11,6 C 89 % 1022,3 hPa 0,0 l/m 0,0 km/h (0 Bft) N 353 0 min 0,000 mm 0,0 UV-I 0 W/m 9,8 C 11,6 C 0,0 km/h (0 Bft) 0,00 %
10.07.2015 01:10 11,5 C 89 % 1022,4 hPa 0,0 l/m 0,7 km/h (0 Bft) O-SO 105 0 min 0,000 mm 0,0 UV-I 0 W/m 9,8 C 11,5 C 4,0 km/h (1 Bft) 0,00 %
10.07.2015 01:15 11,5 C 89 % 1022,3 hPa 0,0 l/m 0,0 km/h (0 Bft) N-NW 331 0 min 0,000 mm 0,0 UV-I 0 W/m 9,8 C 11,5 C 0,0 km/h (0 Bft) 0,00 %
10.07.2015 01:20 11,5 C 89 % 1022,1 hPa 0,0 l/m 0,0 km/h (0 Bft) N 349 0 min 0,000 mm 0,0 UV-I 0 W/m 9,8 C 11,5 C 0,0 km/h (0 Bft) 0,00 %
10.07.2015 01:25 11,5 C 89 % 1022,3 hPa 0,0 l/m 0,4 km/h (0 Bft) NW 320 0 min 0,000 mm 0,0 UV-I 0 W/m 9,8 C 11,5 C 4,0 km/h (1 Bft) 0,00 %
10.07.2015 01:30 11,4 C 89 % 1022,3 hPa 0,0 l/m 0,0 km/h (0 Bft) NO 48 0 min 0,000 mm 0,0 UV-I 0 W/m 9,7 C 11,4 C 0,0 km/h (0 Bft) 0,00 %
10.07.2015 01:35 11,3 C 89 % 1022,4 hPa 0,0 l/m 0,0 km/h (0 Bft) NO 39 0 min 0,000 mm 0,0 UV-I 0 W/m 9,6 C 11,3 C 0,0 km/h (0 Bft) 0,00 %
10.07.2015 01:40 11,3 C 89 % 1022,3 hPa 0,0 l/m 0,0 km/h (0 Bft) O-NO 66 0 min 0,000 mm 0,0 UV-I 0 W/m 9,6 C 11,3 C 0,0 km/h (0 Bft) 0,00 %
10.07.2015 01:45 11,3 C 89 % 1022,3 hPa 0,0 l/m 0,0 km/h (0 Bft) NO 44 0 min 0,000 mm 0,0 UV-I 0 W/m 9,6 C 11,3 C 0,0 km/h (0 Bft) 0,00 %
10.07.2015 01:50 11,2 C 89 % 1022,3 hPa 0,0 l/m 0,0 km/h (0 Bft) N 359 0 min 0,000 mm 0,0 UV-I 0 W/m 9,5 C 11,2 C 0,0 km/h (0 Bft) 0,00 %
10.07.2015 01:55 11,2 C 90 % 1022,4 hPa 0,0 l/m 0,0 km/h (0 Bft) N-NO 28 0 min 0,000 mm 0,0 UV-I 0 W/m 9,6 C 11,2 C 0,0 km/h (0 Bft) 0,00 %
10.07.2015 02:00 11,1 C 90 % 1022,5 hPa 0,0 l/m 0,0 km/h (0 Bft) N-NW 331 0 min 0,000 mm 0,0 UV-I 0 W/m 9,5 C 11,1 C 0,0 km/h (0 Bft) 0,00 %
10.07.2015 02:05 11,0 C 90 % 1022,6 hPa 0,0 l/m 0,0 km/h (0 Bft) NO 43 0 min 0,000 mm 0,0 UV-I 0 W/m 9,4 C 11,0 C 0,0 km/h (0 Bft) 0,00 %
10.07.2015 02:10 11,0 C 91 % 1022,6 hPa 0,0 l/m 0,0 km/h (0 Bft) NO 47 0 min 0,000 mm 0,0 UV-I 0 W/m 9,6 C 11,0 C 0,0 km/h (0 Bft) 0,00 %
10.07.2015 02:15 10,9 C 91 % 1022,5 hPa 0,0 l/m 0,0 km/h (0 Bft) NO 36 0 min 0,000 mm 0,0 UV-I 0 W/m 9,5 C 10,9 C 0,0 km/h (0 Bft) 0,00 %
10.07.2015 02:20 10,8 C 92 % 1022,5 hPa 0,0 l/m 0,0 km/h (0 Bft) N 350 0 min 0,000 mm 0,0 UV-I 0 W/m 9,6 C 10,8 C 0,0 km/h (0 Bft) 0,00 %
10.07.2015 02:25 10,7 C 92 % 1022,6 hPa 0,0 l/m 0,0 km/h (0 Bft) N-NO 28 0 min 0,000 mm 0,0 UV-I 0 W/m 9,5 C 10,7 C 0,0 km/h (0 Bft) 0,00 %
10.07.2015 02:30 10,6 C 92 % 1022,7 hPa 0,0 l/m 0,0 km/h (0 Bft) NO 42 0 min 0,000 mm 0,0 UV-I 0 W/m 9,4 C 10,6 C 0,0 km/h (0 Bft) 0,00 %
10.07.2015 02:35 10,5 C 93 % 1023,0 hPa 0,0 l/m 0,0 km/h (0 Bft) O-NO 67 0 min 0,000 mm 0,0 UV-I 0 W/m 9,4 C 10,5 C 0,0 km/h (0 Bft) 0,00 %
10.07.2015 02:40 10,5 C 93 % 1022,8 hPa 0,0 l/m 0,4 km/h (0 Bft) W 268 0 min 0,000 mm 0,0 UV-I 0 W/m 9,4 C 10,5 C 4,0 km/h (1 Bft) 0,00 %
10.07.2015 02:45 10,5 C 93 % 1022,6 hPa 0,0 l/m 0,0 km/h (0 Bft) N-NO 26 0 min 0,000 mm 0,0 UV-I 0 W/m 9,4 C 10,5 C 0,0 km/h (0 Bft) 0,00 %
10.07.2015 02:50 10,5 C 93 % 1022,6 hPa 0,0 l/m 0,0 km/h (0 Bft) NO 36 0 min 0,000 mm 0,0 UV-I 0 W/m 9,4 C 10,5 C 0,0 km/h (0 Bft) 0,00 %
10.07.2015 02:55 10,5 C 93 % 1022,6 hPa 0,0 l/m 0,0 km/h (0 Bft) N-NW 331 0 min 0,000 mm 0,0 UV-I 0 W/m 9,4 C 10,5 C 0,0 km/h (0 Bft) 0,00 %
10.07.2015 03:00 10,5 C 93 % 1022,7 hPa 0,0 l/m 0,0 km/h (0 Bft) N-NW 335 0 min 0,000 mm 0,0 UV-I 0 W/m 9,4 C 10,5 C 0,0 km/h (0 Bft) 0,00 %
10.07.2015 03:05 10,5 C 93 % 1022,6 hPa 0,0 l/m 0,0 km/h (0 Bft) N-NO 30 0 min 0,000 mm 0,0 UV-I 0 W/m 9,4 C 10,5 C 0,0 km/h (0 Bft) 0,00 %
10.07.2015 03:10 10,5 C 92 % 1022,5 hPa 0,0 l/m 0,0 km/h (0 Bft) W-NW 297 0 min 0,000 mm 0,0 UV-I 0 W/m 9,3 C 10,5 C 0,0 km/h (0 Bft) 0,00 %
10.07.2015 03:15 10,5 C 92 % 1022,6 hPa 0,0 l/m 0,0 km/h (0 Bft) NO 36 0 min 0,000 mm 0,0 UV-I 0 W/m 9,3 C 10,5 C 0,0 km/h (0 Bft) 0,00 %
10.07.2015 03:20 10,4 C 93 % 1022,3 hPa 0,0 l/m 0,0 km/h (0 Bft) N-NO 27 0 min 0,000 mm 0,0 UV-I 0 W/m 9,3 C 10,4 C 0,0 km/h (0 Bft) 0,00 %
10.07.2015 03:25 10,4 C 93 % 1022,2 hPa 0,0 l/m 0,0 km/h (0 Bft) N 355 0 min 0,000 mm 0,0 UV-I 0 W/m 9,3 C 10,4 C 0,0 km/h (0 Bft) 0,00 %
10.07.2015 03:30 10,4 C 93 % 1022,2 hPa 0,0 l/m 0,0 km/h (0 Bft) N 358 0 min 0,000 mm 0,0 UV-I 0 W/m 9,3 C 10,4 C 0,0 km/h (0 Bft) 0,00 %
10.07.2015 03:35 10,4 C 92 % 1022,4 hPa 0,0 l/m 0,0 km/h (0 Bft) NO 39 0 min 0,000 mm 0,0 UV-I 0 W/m 9,2 C 10,4 C 0,0 km/h (0 Bft) 0,00 %
10.07.2015 03:40 10,3 C 92 % 1022,5 hPa 0,0 l/m 0,0 km/h (0 Bft) NO 36 0 min 0,000 mm 0,0 UV-I 0 W/m 9,1 C 10,3 C 0,0 km/h (0 Bft) 0,00 %
10.07.2015 03:45 10,3 C 92 % 1022,4 hPa 0,0 l/m 0,0 km/h (0 Bft) NO 40 0 min 0,000 mm 0,0 UV-I 0 W/m 9,1 C 10,3 C 0,0 km/h (0 Bft) 0,00 %
10.07.2015 03:50 10,3 C 92 % 1022,4 hPa 0,0 l/m 0,0 km/h (0 Bft) NO 39 0 min 0,000 mm 0,0 UV-I 0 W/m 9,1 C 10,3 C 0,0 km/h (0 Bft) 0,00 %
10.07.2015 03:55 10,2 C 91 % 1022,5 hPa 0,0 l/m 0,0 km/h (0 Bft) NO 42 0 min 0,000 mm 0,0 UV-I 0 W/m 8,8 C 10,2 C 0,0 km/h (0 Bft) 0,00 %
10.07.2015 04:00 10,1 C 91 % 1022,3 hPa 0,0 l/m 0,0 km/h (0 Bft) NO 41 0 min 0,000 mm 0,0 UV-I 0 W/m 8,7 C 10,1 C 0,0 km/h (0 Bft) 0,00 %
10.07.2015 04:05 10,1 C 91 % 1022,4 hPa 0,0 l/m 0,0 km/h (0 Bft) NO 36 0 min 0,000 mm 0,0 UV-I 0 W/m 8,7 C 10,1 C 0,0 km/h (0 Bft) 0,00 %
10.07.2015 04:10 9,9 C 92 % 1022,4 hPa 0,0 l/m 0,0 km/h (0 Bft) O 80 0 min 0,000 mm 0,0 UV-I 0 W/m 8,7 C 9,9 C 0,0 km/h (0 Bft) 0,00 %
10.07.2015 04:15 9,8 C 92 % 1022,2 hPa 0,0 l/m 0,0 km/h (0 Bft) N 356 0 min 0,000 mm 0,0 UV-I 0 W/m 8,6 C 9,8 C 0,0 km/h (0 Bft) 0,00 %
10.07.2015 04:20 9,8 C 92 % 1022,4 hPa 0,0 l/m 0,0 km/h (0 Bft) NO 34 0 min 0,000 mm 0,0 UV-I 0 W/m 8,6 C 9,8 C 0,0 km/h (0 Bft) 0,00 %
10.07.2015 04:25 9,8 C 92 % 1022,4 hPa 0,0 l/m 0,0 km/h (0 Bft) N 356 0 min 0,000 mm 0,0 UV-I 0 W/m 8,6 C 9,8 C 0,0 km/h (0 Bft) 0,00 %
10.07.2015 04:30 9,8 C 92 % 1022,3 hPa 0,0 l/m 0,0 km/h (0 Bft) NO 47 0 min 0,000 mm 0,0 UV-I 0 W/m 8,6 C 9,8 C 0,0 km/h (0 Bft) 0,00 %
10.07.2015 04:35 9,9 C 90 % 1022,5 hPa 0,0 l/m 0,0 km/h (0 Bft) N-NO 33 0 min 0,000 mm 0,0 UV-I 0 W/m 8,3 C 9,9 C 0,0 km/h (0 Bft) 0,00 %
10.07.2015 04:40 9,9 C 90 % 1022,5 hPa 0,0 l/m 0,0 km/h (0 Bft) N-NO 26 0 min 0,000 mm 0,0 UV-I 0 W/m 8,3 C 9,9 C 0,0 km/h (0 Bft) 0,00 %
10.07.2015 04:45 10,0 C 90 % 1022,5 hPa 0,0 l/m 0,0 km/h (0 Bft) NO 36 0 min 0,000 mm 0,0 UV-I 0 W/m 8,4 C 10,0 C 0,0 km/h (0 Bft) 0,00 %
10.07.2015 04:50 9,9 C 90 % 1022,6 hPa 0,0 l/m 0,0 km/h (0 Bft) NO 46 0 min 0,000 mm 0,0 UV-I 0 W/m 8,3 C 9,9 C 0,0 km/h (0 Bft) 0,00 %
10.07.2015 04:55 9,8 C 90 % 1022,6 hPa 0,0 l/m 0,0 km/h (0 Bft) NO 38 0 min 0,000 mm 0,0 UV-I 0 W/m 8,2 C 9,8 C 0,0 km/h (0 Bft) 0,00 %
10.07.2015 05:00 9,8 C 91 % 1022,5 hPa 0,0 l/m 0,0 km/h (0 Bft) NO 42 0 min 0,000 mm 0,0 UV-I 0 W/m 8,4 C 9,8 C 0,0 km/h (0 Bft) 0,00 %
10.07.2015 05:05 9,7 C 91 % 1022,2 hPa 0,0 l/m 0,0 km/h (0 Bft) O-NO 58 0 min 0,000 mm 0,0 UV-I 0 W/m 8,3 C 9,7 C 0,0 km/h (0 Bft) 0,00 %
10.07.2015 05:10 9,6 C 91 % 1022,5 hPa 0,0 l/m 0,0 km/h (0 Bft) N 357 0 min 0,000 mm 0,0 UV-I 0 W/m 8,2 C 9,6 C 0,0 km/h (0 Bft) 0,00 %
10.07.2015 05:15 9,6 C 91 % 1022,4 hPa 0,0 l/m 0,0 km/h (0 Bft) NO 49 0 min 0,000 mm 0,0 UV-I 0 W/m 8,2 C 9,6 C 0,0 km/h (0 Bft) 0,00 %
10.07.2015 05:20 9,7 C 91 % 1022,6 hPa 0,0 l/m 0,0 km/h (0 Bft) NO 38 0 min 0,000 mm 0,0 UV-I 2 W/m 8,3 C 9,7 C 0,0 km/h (0 Bft) 0,00 %
10.07.2015 05:25 9,7 C 91 % 1022,6 hPa 0,0 l/m 0,0 km/h (0 Bft) NO 50 0 min 0,000 mm 0,0 UV-I 6 W/m 8,3 C 9,7 C 0,0 km/h (0 Bft) 0,00 %
10.07.2015 05:30 9,7 C 91 % 1022,7 hPa 0,0 l/m 0,0 km/h (0 Bft) NO 56 0 min 0,000 mm 0,0 UV-I 11 W/m 8,3 C 9,7 C 0,0 km/h (0 Bft) 0,00 %
10.07.2015 05:35 9,6 C 91 % 1022,7 hPa 0,0 l/m 0,0 km/h (0 Bft) NO 39 5 min 0,000 mm 0,0 UV-I 21 W/m 8,2 C 9,6 C 0,0 km/h (0 Bft) 0,00 %
10.07.2015 05:40 9,6 C 91 % 1022,8 hPa 0,0 l/m 0,0 km/h (0 Bft) NO 41 5 min 0,000 mm 0,0 UV-I 28 W/m 8,2 C 9,6 C 0,0 km/h (0 Bft) 0,00 %
10.07.2015 05:45 9,6 C 92 % 1022,7 hPa 0,0 l/m 0,0 km/h (0 Bft) N-NO 29 5 min 0,000 mm 0,0 UV-I 35 W/m 8,4 C 9,6 C 0,0 km/h (0 Bft) 0,00 %
10.07.2015 05:50 9,6 C 92 % 1022,6 hPa 0,0 l/m 0,0 km/h (0 Bft) NO 39 5 min 0,000 mm 0,0 UV-I 45 W/m 8,4 C 9,6 C 0,0 km/h (0 Bft) 0,00 %
10.07.2015 05:55 9,7 C 90 % 1022,8 hPa 0,0 l/m 0,0 km/h (0 Bft) NO 48 5 min 0,000 mm 0,0 UV-I 82 W/m 8,1 C 9,7 C 0,0 km/h (0 Bft) 0,00 %
10.07.2015 06:00 10,0 C 90 % 1022,7 hPa 0,0 l/m 0,0 km/h (0 Bft) NO 41 5 min 0,000 mm 0,0 UV-I 96 W/m 8,4 C 10,0 C 0,0 km/h (0 Bft) 0,00 %
10.07.2015 06:05 10,5 C 88 % 1022,6 hPa 0,0 l/m 0,0 km/h (0 Bft) NO 42 5 min 0,000 mm 0,0 UV-I 113 W/m 8,6 C 10,5 C 0,0 km/h (0 Bft) 0,00 %
10.07.2015 06:10 10,9 C 85 % 1022,7 hPa 0,0 l/m 0,7 km/h (0 Bft) W 260 5 min 0,000 mm 0,0 UV-I 133 W/m 8,5 C 10,9 C 4,0 km/h (1 Bft) 0,00 %
10.07.2015 06:15 11,2 C 83 % 1022,6 hPa 0,0 l/m 0,0 km/h (0 Bft) NO 44 5 min 0,000 mm 0,0 UV-I 151 W/m 8,4 C 11,2 C 0,0 km/h (0 Bft) 0,00 %
10.07.2015 06:20 11,6 C 82 % 1022,7 hPa 0,0 l/m 0,0 km/h (0 Bft) NO 47 5 min 0,000 mm 0,0 UV-I 171 W/m 8,6 C 11,6 C 0,0 km/h (0 Bft) 0,00 %
10.07.2015 06:25 12,1 C 79 % 1022,7 hPa 0,0 l/m 0,0 km/h (0 Bft) N-NO 30 5 min 0,000 mm 0,0 UV-I 183 W/m 8,6 C 12,1 C 0,0 km/h (0 Bft) 0,00 %
10.07.2015 06:30 12,4 C 79 % 1022,5 hPa 0,0 l/m 0,0 km/h (0 Bft) NO 42 5 min 0,000 mm 1,0 UV-I 196 W/m 8,9 C 12,4 C 0,0 km/h (0 Bft) 0,00 %
10.07.2015 06:35 12,6 C 77 % 1022,6 hPa 0,0 l/m 0,0 km/h (0 Bft) NO 37 5 min 0,000 mm 1,0 UV-I 222 W/m 8,7 C 12,6 C 0,0 km/h (0 Bft) 0,00 %
10.07.2015 06:40 13,0 C 75 % 1022,5 hPa 0,0 l/m 0,0 km/h (0 Bft) N 352 5 min 0,000 mm 1,0 UV-I 240 W/m 8,7 C 13,0 C 0,0 km/h (0 Bft) 0,00 %
10.07.2015 06:45 13,5 C 73 % 1022,5 hPa 0,0 l/m 0,0 km/h (0 Bft) N-NO 13 5 min 0,000 mm 1,0 UV-I 247 W/m 8,8 C 13,5 C 0,0 km/h (0 Bft) 0,00 %
10.07.2015 06:50 13,8 C 72 % 1022,4 hPa 0,0 l/m 0,0 km/h (0 Bft) NO 50 5 min 0,000 mm 1,0 UV-I 270 W/m 8,8 C 13,8 C 0,0 km/h (0 Bft) 0,00 %
10.07.2015 06:55 14,0 C 71 % 1022,4 hPa 0,0 l/m 0,0 km/h (0 Bft) NO 35 5 min 0,000 mm 1,0 UV-I 289 W/m 8,8 C 14,0 C 0,0 km/h (0 Bft) 0,00 %
10.07.2015 07:00 14,2 C 71 % 1022,4 hPa 0,0 l/m 0,0 km/h (0 Bft) N-NO 30 5 min 0,000 mm 1,0 UV-I 305 W/m 9,0 C 14,2 C 0,0 km/h (0 Bft) 0,00 %
10.07.2015 07:05 14,4 C 71 % 1022,7 hPa 0,0 l/m 0,0 km/h (0 Bft) NO 52 5 min 0,000 mm 1,0 UV-I 331 W/m 9,2 C 14,4 C 0,0 km/h (0 Bft) 0,00 %
10.07.2015 07:10 14,4 C 72 % 1022,4 hPa 0,0 l/m 0,0 km/h (0 Bft) N 349 5 min 0,000 mm 1,0 UV-I 344 W/m 9,4 C 14,4 C 0,0 km/h (0 Bft) 0,00 %
10.07.2015 07:15 14,5 C 71 % 1022,2 hPa 0,0 l/m 0,0 km/h (0 Bft) N 354 5 min 0,000 mm 1,0 UV-I 359 W/m 9,3 C 14,5 C 0,0 km/h (0 Bft) 0,00 %
10.07.2015 07:20 14,9 C 69 % 1022,3 hPa 0,0 l/m 0,4 km/h (0 Bft) SO 135 5 min 0,000 mm 1,0 UV-I 367 W/m 9,3 C 14,9 C 4,0 km/h (1 Bft) 0,00 %
10.07.2015 07:25 15,2 C 66 % 1022,2 hPa 0,0 l/m 0,0 km/h (0 Bft) N-NO 27 5 min 0,000 mm 1,0 UV-I 376 W/m 8,9 C 15,2 C 0,0 km/h (0 Bft) 0,00 %
10.07.2015 07:30 15,2 C 65 % 1022,0 hPa 0,0 l/m 6,5 km/h (2 Bft) W-SW 256 5 min 0,000 mm 1,0 UV-I 375 W/m 8,7 C 15,2 C 7,9 km/h (2 Bft) 0,00 %
10.07.2015 07:35 15,2 C 66 % 1022,3 hPa 0,0 l/m 2,2 km/h (1 Bft) W-SW 256 5 min 0,000 mm 1,0 UV-I 381 W/m 8,9 C 15,2 C 4,0 km/h (1 Bft) 0,00 %
10.07.2015 07:40 15,2 C 64 % 1022,4 hPa 0,0 l/m 0,0 km/h (0 Bft) N-NO 33 5 min 0,000 mm 1,0 UV-I 392 W/m 8,4 C 15,2 C 0,0 km/h (0 Bft) 0,00 %
10.07.2015 07:45 15,2 C 65 % 1022,2 hPa 0,0 l/m 0,7 km/h (0 Bft) NO 50 5 min 0,000 mm 1,0 UV-I 399 W/m 8,7 C 15,2 C 4,0 km/h (1 Bft) 0,00 %
10.07.2015 07:50 15,4 C 62 % 1022,4 hPa 0,0 l/m 0,4 km/h (0 Bft) NW 317 5 min 0,000 mm 1,0 UV-I 398 W/m 8,2 C 15,4 C 4,0 km/h (1 Bft) 0,00 %
10.07.2015 07:55 15,7 C 59 % 1022,2 hPa 0,0 l/m 0,4 km/h (0 Bft) NO 48 5 min 0,000 mm 1,0 UV-I 404 W/m 7,7 C 15,7 C 4,0 km/h (1 Bft) 0,00 %
10.07.2015 08:00 15,7 C 61 % 1022,3 hPa 0,0 l/m 4,7 km/h (1 Bft) W-SW 256 5 min 0,000 mm 1,0 UV-I 400 W/m 8,2 C 15,7 C 11,9 km/h (2 Bft) 0,00 %
10.07.2015 08:05 15,6 C 60 % 1022,5 hPa 0,0 l/m 1,8 km/h (1 Bft) N-NO 25 5 min 0,000 mm 1,0 UV-I 414 W/m 7,9 C 15,6 C 4,0 km/h (1 Bft) 0,00 %
10.07.2015 08:10 15,7 C 58 % 1022,4 hPa 0,0 l/m 5,4 km/h (1 Bft) W-NW 286 5 min 0,000 mm 1,0 UV-I 398 W/m 7,5 C 15,7 C 7,9 km/h (2 Bft) 0,00 %
10.07.2015 08:15 15,9 C 59 % 1022,3 hPa 0,0 l/m 0,7 km/h (0 Bft) NO 52 5 min 0,000 mm 1,0 UV-I 427 W/m 7,9 C 15,9 C 4,0 km/h (1 Bft) 0,00 %
10.07.2015 08:20 16,2 C 59 % 1022,3 hPa 0,0 l/m 4,7 km/h (1 Bft) W-SW 255 5 min 0,000 mm 1,0 UV-I 447 W/m 8,2 C 16,2 C 7,9 km/h (2 Bft) 0,00 %
10.07.2015 08:25 16,5 C 58 % 1022,1 hPa 0,0 l/m 3,2 km/h (1 Bft) W-SW 256 5 min 0,000 mm 2,0 UV-I 502 W/m 8,2 C 16,5 C 4,0 km/h (1 Bft) 0,00 %
10.07.2015 08:30 16,7 C 59 % 1022,3 hPa 0,0 l/m 0,4 km/h (0 Bft) N 352 5 min 0,000 mm 2,0 UV-I 441 W/m 8,6 C 16,7 C 4,0 km/h (1 Bft) 0,00 %
10.07.2015 08:35 16,9 C 59 % 1022,1 hPa 0,0 l/m 0,4 km/h (0 Bft) W 263 5 min 0,000 mm 1,0 UV-I 443 W/m 8,8 C 16,9 C 4,0 km/h (1 Bft) 0,00 %
10.07.2015 08:40 16,9 C 59 % 1022,1 hPa 0,0 l/m 5,4 km/h (1 Bft) W-SW 256 5 min 0,000 mm 2,0 UV-I 461 W/m 8,8 C 16,9 C 7,9 km/h (2 Bft) 0,00 %
10.07.2015 08:45 16,8 C 58 % 1022,2 hPa 0,0 l/m 0,0 km/h (0 Bft) NO 43 5 min 0,000 mm 2,0 UV-I 462 W/m 8,5 C 16,8 C 0,0 km/h (0 Bft) 0,00 %
10.07.2015 08:50 17,2 C 56 % 1022,0 hPa 0,0 l/m 2,9 km/h (1 Bft) NW 326 5 min 0,000 mm 2,0 UV-I 472 W/m 8,3 C 17,2 C 4,0 km/h (1 Bft) 0,00 %
10.07.2015 08:55 17,5 C 55 % 1021,9 hPa 0,0 l/m 0,4 km/h (0 Bft) N-NW 343 5 min 0,000 mm 2,0 UV-I 477 W/m 8,4 C 17,5 C 4,0 km/h (1 Bft) 0,00 %
10.07.2015 09:00 17,4 C 58 % 1021,7 hPa 0,0 l/m 0,4 km/h (0 Bft) S-SO 149 5 min 0,000 mm 2,0 UV-I 495 W/m 9,1 C 17,4 C 4,0 km/h (1 Bft) 0,00 %
10.07.2015 09:05 17,2 C 57 % 1022,0 hPa 0,0 l/m 0,4 km/h (0 Bft) S-SO 154 5 min 0,000 mm 2,0 UV-I 517 W/m 8,6 C 17,2 C 4,0 km/h (1 Bft) 0,00 %
10.07.2015 09:10 17,3 C 54 % 1021,9 hPa 0,0 l/m 1,8 km/h (1 Bft) NW 307 5 min 0,000 mm 2,0 UV-I 385 W/m 7,9 C 17,3 C 4,0 km/h (1 Bft) 0,00 %
10.07.2015 09:15 17,8 C 54 % 1021,7 hPa 0,0 l/m 4,0 km/h (1 Bft) W-NW 285 5 min 0,000 mm 2,0 UV-I 559 W/m 8,4 C 17,8 C 7,9 km/h (2 Bft) 0,00 %
10.07.2015 09:20 18,0 C 52 % 1021,8 hPa 0,0 l/m 2,2 km/h (1 Bft) N 352 5 min 0,000 mm 2,0 UV-I 557 W/m 8,0 C 18,0 C 4,0 km/h (1 Bft) 0,00 %
10.07.2015 09:25 18,1 C 54 % 1021,9 hPa 0,0 l/m 0,7 km/h (0 Bft) N 351 5 min 0,000 mm 2,0 UV-I 431 W/m 8,6 C 18,1 C 4,0 km/h (1 Bft) 0,00 %
10.07.2015 09:30 18,7 C 51 % 1021,5 hPa 0,0 l/m 0,7 km/h (0 Bft) S-SW 203 5 min 0,000 mm 2,0 UV-I 549 W/m 8,4 C 18,7 C 4,0 km/h (1 Bft) 0,00 %
10.07.2015 09:35 19,2 C 53 % 1021,4 hPa 0,0 l/m 0,4 km/h (0 Bft) NO 52 5 min 0,000 mm 2,0 UV-I 557 W/m 9,4 C 19,2 C 4,0 km/h (1 Bft) 0,00 %
10.07.2015 09:40 19,2 C 50 % 1021,4 hPa 0,0 l/m 2,2 km/h (1 Bft) W 280 5 min 0,000 mm 2,0 UV-I 565 W/m 8,5 C 19,2 C 4,0 km/h (1 Bft) 0,00 %
10.07.2015 09:45 19,1 C 52 % 1021,5 hPa 0,0 l/m 6,8 km/h (2 Bft) NW 310 5 min 0,000 mm 3,0 UV-I 573 W/m 9,0 C 18,9 C 7,9 km/h (2 Bft) 0,00 %
10.07.2015 09:50 18,9 C 52 % 1021,6 hPa 0,0 l/m 4,0 km/h (1 Bft) W-NW 296 5 min 0,000 mm 3,0 UV-I 588 W/m 8,8 C 18,9 C 7,9 km/h (2 Bft) 0,00 %
10.07.2015 09:55 18,8 C 52 % 1021,3 hPa 0,0 l/m 0,4 km/h (0 Bft) NW 304 5 min 0,000 mm 3,0 UV-I 595 W/m 8,7 C 18,8 C 4,0 km/h (1 Bft) 0,00 %
10.07.2015 10:00 19,2 C 50 % 1021,4 hPa 0,0 l/m 1,4 km/h (1 Bft) NO 53 5 min 0,000 mm 3,0 UV-I 626 W/m 8,5 C 19,2 C 4,0 km/h (1 Bft) 0,00 %
10.07.2015 10:05 19,6 C 45 % 1021,2 hPa 0,0 l/m 0,0 km/h (0 Bft) NO 34 5 min 0,000 mm 3,0 UV-I 668 W/m 7,3 C 19,6 C 0,0 km/h (0 Bft) 0,00 %
10.07.2015 10:10 19,8 C 49 % 1021,2 hPa 0,0 l/m 0,0 km/h (0 Bft) NO 36 5 min 0,000 mm 3,0 UV-I 664 W/m 8,8 C 19,8 C 0,0 km/h (0 Bft) 0,00 %
10.07.2015 10:15 20,1 C 51 % 1021,0 hPa 0,0 l/m 0,0 km/h (0 Bft) NO 55 5 min 0,000 mm 3,0 UV-I 682 W/m 9,6 C 20,1 C 0,0 km/h (0 Bft) 0,00 %
10.07.2015 10:20 20,4 C 49 % 1021,1 hPa 0,0 l/m 0,0 km/h (0 Bft) NO 55 5 min 0,000 mm 3,0 UV-I 713 W/m 9,3 C 20,4 C 0,0 km/h (0 Bft) 0,00 %
10.07.2015 10:25 20,4 C 50 % 1021,0 hPa 0,0 l/m 0,0 km/h (0 Bft) W-NW 287 5 min 0,000 mm 3,0 UV-I 486 W/m 9,6 C 20,4 C 0,0 km/h (0 Bft) 0,00 %
10.07.2015 10:30 20,6 C 46 % 1021,1 hPa 0,0 l/m 0,0 km/h (0 Bft) N-NO 26 5 min 0,000 mm 4,0 UV-I 727 W/m 8,6 C 20,6 C 0,0 km/h (0 Bft) 0,00 %
10.07.2015 10:35 20,9 C 43 % 1021,0 hPa 0,0 l/m 9,7 km/h (2 Bft) W-NW 299 5 min 0,000 mm 4,0 UV-I 823 W/m 7,8 C 19,7 C 11,9 km/h (2 Bft) 0,00 %
10.07.2015 10:40 20,8 C 44 % 1020,8 hPa 0,0 l/m 2,9 km/h (1 Bft) W 281 0 min 0,000 mm 4,0 UV-I 285 W/m 8,1 C 20,8 C 4,0 km/h (1 Bft) 0,00 %
10.07.2015 10:45 20,6 C 46 % 1020,8 hPa 0,0 l/m 0,4 km/h (0 Bft) O 88 0 min 0,000 mm 4,0 UV-I 202 W/m 8,6 C 20,6 C 4,0 km/h (1 Bft) 0,00 %
10.07.2015 10:50 20,7 C 47 % 1021,0 hPa 0,0 l/m 1,8 km/h (1 Bft) O-NO 74 0 min 0,000 mm 4,0 UV-I 263 W/m 9,0 C 20,7 C 4,0 km/h (1 Bft) 0,00 %
10.07.2015 10:55 20,9 C 42 % 1020,8 hPa 0,0 l/m 0,7 km/h (0 Bft) W-NW 293 5 min 0,000 mm 4,0 UV-I 771 W/m 7,5 C 20,9 C 4,0 km/h (1 Bft) 0,00 %
10.07.2015 11:00 20,7 C 45 % 1020,9 hPa 0,0 l/m 2,9 km/h (1 Bft) N 349 5 min 0,000 mm 3,0 UV-I 794 W/m 8,3 C 20,7 C 7,9 km/h (2 Bft) 0,00 %
10.07.2015 11:05 20,0 C 43 % 1021,0 hPa 0,0 l/m 4,3 km/h (1 Bft) O-NO 72 5 min 0,000 mm 4,0 UV-I 861 W/m 7,0 C 20,0 C 7,9 km/h (2 Bft) 0,00 %
10.07.2015 11:10 19,5 C 43 % 1021,0 hPa 0,0 l/m 2,2 km/h (1 Bft) W-NW 292 5 min 0,000 mm 4,0 UV-I 806 W/m 6,6 C 19,5 C 7,9 km/h (2 Bft) 0,00 %
10.07.2015 11:15 19,6 C 43 % 1021,0 hPa 0,0 l/m 0,4 km/h (0 Bft) W-NW 296 0 min 0,000 mm 5,0 UV-I 375 W/m 6,7 C 19,6 C 4,0 km/h (1 Bft) 0,00 %
10.07.2015 11:20 20,4 C 41 % 1020,9 hPa 0,0 l/m 5,8 km/h (2 Bft) O-NO 77 5 min 0,000 mm 2,0 UV-I 891 W/m 6,7 C 20,4 C 7,9 km/h (2 Bft) 0,00 %
10.07.2015 11:25 20,9 C 42 % 1020,8 hPa 0,0 l/m 4,7 km/h (1 Bft) W-NW 299 0 min 0,000 mm 5,0 UV-I 241 W/m 7,5 C 20,9 C 7,9 km/h (2 Bft) 0,00 %
10.07.2015 11:30 20,9 C 45 % 1020,8 hPa 0,0 l/m 0,7 km/h (0 Bft) N-NW 333 5 min 0,000 mm 4,0 UV-I 612 W/m 8,5 C 20,9 C 4,0 km/h (1 Bft) 0,00 %
10.07.2015 11:35 21,2 C 40 % 1020,7 hPa 0,0 l/m 10,4 km/h (2 Bft) N-NW 341 5 min 0,000 mm 2,0 UV-I 780 W/m 7,1 C 19,8 C 15,8 km/h (3 Bft) 0,00 %
10.07.2015 11:40 21,0 C 45 % 1020,6 hPa 0,0 l/m 0,4 km/h (0 Bft) N 10 0 min 0,000 mm 2,0 UV-I 351 W/m 8,6 C 21,0 C 4,0 km/h (1 Bft) 0,00 %
10.07.2015 11:45 20,3 C 47 % 1020,7 hPa 0,0 l/m 1,8 km/h (1 Bft) W-SW 242 5 min 0,000 mm 4,0 UV-I 741 W/m 8,6 C 20,3 C 4,0 km/h (1 Bft) 0,00 %
10.07.2015 11:50 20,0 C 46 % 1020,5 hPa 0,0 l/m 9,7 km/h (2 Bft) W-SW 256 5 min 0,000 mm 2,0 UV-I 775 W/m 8,0 C 18,7 C 11,9 km/h (2 Bft) 0,00 %
10.07.2015 11:55 20,0 C 44 % 1020,5 hPa 0,0 l/m 6,8 km/h (2 Bft) N-NW 336 5 min 0,000 mm 5,0 UV-I 779 W/m 7,4 C 19,8 C 7,9 km/h (2 Bft) 0,00 %
10.07.2015 12:00 20,0 C 45 % 1020,5 hPa 0,0 l/m 1,4 km/h (1 Bft) SO 140 5 min 0,000 mm 5,0 UV-I 789 W/m 7,7 C 20,0 C 4,0 km/h (1 Bft) 0,00 %
10.07.2015 12:05 20,2 C 45 % 1020,6 hPa 0,0 l/m 3,2 km/h (1 Bft) NO 54 5 min 0,000 mm 5,0 UV-I 808 W/m 7,9 C 20,2 C 7,9 km/h (2 Bft) 0,00 %
10.07.2015 12:10 20,6 C 45 % 1020,3 hPa 0,0 l/m 0,7 km/h (0 Bft) W-SW 256 5 min 0,000 mm 5,0 UV-I 808 W/m 8,2 C 20,6 C 4,0 km/h (1 Bft) 0,00 %
10.07.2015 12:15 21,0 C 40 % 1020,3 hPa 0,0 l/m 9,0 km/h (2 Bft) W-NW 291 5 min 0,000 mm 5,0 UV-I 803 W/m 6,9 C 20,1 C 11,9 km/h (2 Bft) 0,00 %
10.07.2015 12:20 21,0 C 41 % 1020,3 hPa 0,0 l/m 4,0 km/h (1 Bft) SW 232 5 min 0,000 mm 5,0 UV-I 782 W/m 7,2 C 21,0 C 7,9 km/h (2 Bft) 0,00 %
10.07.2015 12:25 21,1 C 41 % 1020,4 hPa 0,0 l/m 2,9 km/h (1 Bft) W-SW 256 5 min 0,000 mm 5,0 UV-I 775 W/m 7,3 C 21,1 C 7,9 km/h (2 Bft) 0,00 %
10.07.2015 12:30 21,1 C 41 % 1020,1 hPa 0,0 l/m 1,4 km/h (1 Bft) N 354 5 min 0,000 mm 5,0 UV-I 833 W/m 7,3 C 21,1 C 4,0 km/h (1 Bft) 0,00 %
10.07.2015 12:35 21,0 C 41 % 1020,2 hPa 0,0 l/m 3,2 km/h (1 Bft) SW 229 5 min 0,000 mm 6,0 UV-I 812 W/m 7,2 C 21,0 C 4,0 km/h (1 Bft) 0,00 %
10.07.2015 12:40 20,9 C 42 % 1020,1 hPa 0,0 l/m 6,5 km/h (2 Bft) W 275 5 min 0,000 mm 6,0 UV-I 834 W/m 7,5 C 20,9 C 11,9 km/h (2 Bft) 0,00 %
10.07.2015 12:45 20,8 C 40 % 1020,3 hPa 0,0 l/m 0,7 km/h (0 Bft) NW 316 5 min 0,000 mm 6,0 UV-I 838 W/m 6,7 C 20,8 C 4,0 km/h (1 Bft) 0,00 %
10.07.2015 12:50 21,1 C 42 % 1020,1 hPa 0,0 l/m 5,4 km/h (1 Bft) NW 315 5 min 0,000 mm 6,0 UV-I 835 W/m 7,7 C 21,1 C 7,9 km/h (2 Bft) 0,00 %
10.07.2015 12:55 21,2 C 40 % 1019,9 hPa 0,0 l/m 0,7 km/h (0 Bft) N 349 5 min 0,000 mm 6,0 UV-I 837 W/m 7,1 C 21,2 C 4,0 km/h (1 Bft) 0,00 %
10.07.2015 13:00 21,4 C 42 % 1019,9 hPa 0,0 l/m 3,2 km/h (1 Bft) N 350 5 min 0,000 mm 6,0 UV-I 840 W/m 8,0 C 21,4 C 4,0 km/h (1 Bft) 0,00 %
10.07.2015 13:05 21,6 C 43 % 1019,9 hPa 0,0 l/m 0,0 km/h (0 Bft) N 351 5 min 0,000 mm 6,0 UV-I 836 W/m 8,5 C 21,6 C 0,0 km/h (0 Bft) 0,00 %
10.07.2015 13:10 21,8 C 41 % 1019,6 hPa 0,0 l/m 0,4 km/h (0 Bft) W 278 5 min 0,000 mm 6,0 UV-I 862 W/m 8,0 C 21,8 C 4,0 km/h (1 Bft) 0,00 %
10.07.2015 13:15 21,9 C 40 % 1019,5 hPa 0,0 l/m 1,4 km/h (1 Bft) N-NO 31 5 min 0,000 mm 5,0 UV-I 853 W/m 7,7 C 21,9 C 4,0 km/h (1 Bft) 0,00 %
10.07.2015 13:20 21,8 C 41 % 1019,6 hPa 0,0 l/m 1,4 km/h (1 Bft) N 352 5 min 0,000 mm 5,0 UV-I 854 W/m 8,0 C 21,8 C 4,0 km/h (1 Bft) 0,00 %
10.07.2015 13:25 21,9 C 41 % 1019,5 hPa 0,0 l/m 4,0 km/h (1 Bft) NW 324 5 min 0,000 mm 5,0 UV-I 866 W/m 8,0 C 21,9 C 7,9 km/h (2 Bft) 0,00 %
10.07.2015 13:30 21,8 C 41 % 1019,4 hPa 0,0 l/m 0,4 km/h (0 Bft) N-NO 30 5 min 0,000 mm 5,0 UV-I 892 W/m 8,0 C 21,8 C 4,0 km/h (1 Bft) 0,00 %
10.07.2015 13:35 21,7 C 42 % 1019,3 hPa 0,0 l/m 8,3 km/h (2 Bft) W-NW 286 5 min 0,000 mm 5,0 UV-I 908 W/m 8,2 C 21,0 C 11,9 km/h (2 Bft) 0,00 %
10.07.2015 13:40 21,9 C 40 % 1019,4 hPa 0,0 l/m 3,2 km/h (1 Bft) NW 326 5 min 0,000 mm 5,0 UV-I 890 W/m 7,7 C 21,9 C 4,0 km/h (1 Bft) 0,00 %
10.07.2015 13:45 22,1 C 41 % 1019,6 hPa 0,0 l/m 4,0 km/h (1 Bft) W-SW 256 5 min 0,000 mm 5,0 UV-I 898 W/m 8,2 C 22,1 C 7,9 km/h (2 Bft) 0,00 %
10.07.2015 13:50 22,1 C 42 % 1019,3 hPa 0,0 l/m 2,9 km/h (1 Bft) O-SO 119 5 min 0,000 mm 5,0 UV-I 885 W/m 8,6 C 22,1 C 7,9 km/h (2 Bft) 0,00 %
10.07.2015 13:55 22,4 C 42 % 1019,2 hPa 0,0 l/m 0,7 km/h (0 Bft) N 353 5 min 0,000 mm 5,0 UV-I 883 W/m 8,9 C 22,4 C 4,0 km/h (1 Bft) 0,00 %
10.07.2015 14:00 22,6 C 42 % 1019,2 hPa 0,0 l/m 0,4 km/h (0 Bft) W-NW 285 5 min 0,000 mm 5,0 UV-I 878 W/m 9,0 C 22,6 C 4,0 km/h (1 Bft) 0,00 %
10.07.2015 14:05 22,6 C 41 % 1019,0 hPa 0,0 l/m 2,2 km/h (1 Bft) N-NW 331 5 min 0,000 mm 5,0 UV-I 869 W/m 8,7 C 22,6 C 4,0 km/h (1 Bft) 0,00 %
10.07.2015 14:10 22,6 C 39 % 1019,2 hPa 0,0 l/m 5,4 km/h (1 Bft) SW 216 5 min 0,000 mm 5,0 UV-I 894 W/m 7,9 C 22,6 C 7,9 km/h (2 Bft) 0,00 %
10.07.2015 14:15 22,5 C 40 % 1019,1 hPa 0,0 l/m 2,9 km/h (1 Bft) N 354 5 min 0,000 mm 5,0 UV-I 886 W/m 8,2 C 22,5 C 4,0 km/h (1 Bft) 0,00 %
10.07.2015 14:20 22,3 C 41 % 1019,1 hPa 0,0 l/m 0,0 km/h (0 Bft) NO 34 5 min 0,000 mm 5,0 UV-I 873 W/m 8,4 C 22,3 C 0,0 km/h (0 Bft) 0,00 %
10.07.2015 14:25 22,3 C 40 % 1019,1 hPa 0,0 l/m 7,2 km/h (2 Bft) W-NW 289 5 min 0,000 mm 5,0 UV-I 892 W/m 8,0 C 22,0 C 11,9 km/h (2 Bft) 0,00 %
10.07.2015 14:30 22,4 C 40 % 1019,0 hPa 0,0 l/m 6,8 km/h (2 Bft) N 350 5 min 0,000 mm 5,0 UV-I 893 W/m 8,1 C 22,3 C 7,9 km/h (2 Bft) 0,00 %
10.07.2015 14:35 22,3 C 40 % 1018,8 hPa 0,0 l/m 2,9 km/h (1 Bft) NW 322 5 min 0,000 mm 5,0 UV-I 892 W/m 8,0 C 22,3 C 4,0 km/h (1 Bft) 0,00 %
10.07.2015 14:40 22,1 C 40 % 1018,9 hPa 0,0 l/m 4,7 km/h (1 Bft) W-NW 287 5 min 0,000 mm 5,0 UV-I 890 W/m 7,9 C 22,1 C 7,9 km/h (2 Bft) 0,00 %
10.07.2015 14:45 22,0 C 40 % 1018,9 hPa 0,0 l/m 0,7 km/h (0 Bft) W-NW 284 5 min 0,000 mm 5,0 UV-I 892 W/m 7,8 C 22,0 C 4,0 km/h (1 Bft) 0,00 %
10.07.2015 14:50 22,3 C 38 % 1018,7 hPa 0,0 l/m 2,9 km/h (1 Bft) O-SO 123 5 min 0,000 mm 5,0 UV-I 914 W/m 7,3 C 22,3 C 4,0 km/h (1 Bft) 0,00 %
10.07.2015 14:55 22,5 C 35 % 1018,9 hPa 0,0 l/m 1,8 km/h (1 Bft) O-NO 68 5 min 0,000 mm 5,0 UV-I 900 W/m 6,3 C 22,5 C 4,0 km/h (1 Bft) 0,00 %
10.07.2015 15:00 22,6 C 39 % 1018,9 hPa 0,0 l/m 0,4 km/h (0 Bft) N 352 5 min 0,000 mm 5,0 UV-I 899 W/m 7,9 C 22,6 C 4,0 km/h (1 Bft) 0,00 %
10.07.2015 15:05 22,6 C 36 % 1018,8 hPa 0,0 l/m 2,9 km/h (1 Bft) N-NW 342 5 min 0,000 mm 4,0 UV-I 895 W/m 6,8 C 22,6 C 4,0 km/h (1 Bft) 0,00 %
10.07.2015 15:10 22,9 C 41 % 1018,8 hPa 0,0 l/m 11,5 km/h (2 Bft) W-SW 256 5 min 0,000 mm 4,0 UV-I 892 W/m 8,9 C 21,5 C 15,8 km/h (3 Bft) 0,00 %
10.07.2015 15:15 23,2 C 36 % 1018,7 hPa 0,0 l/m 0,7 km/h (0 Bft) NO 42 5 min 0,000 mm 4,0 UV-I 909 W/m 7,3 C 23,2 C 4,0 km/h (1 Bft) 0,00 %
10.07.2015 15:20 23,1 C 36 % 1018,7 hPa 0,0 l/m 5,8 km/h (2 Bft) N-NW 334 5 min 0,000 mm 4,0 UV-I 877 W/m 7,2 C 23,1 C 7,9 km/h (2 Bft) 0,00 %
10.07.2015 15:25 22,9 C 39 % 1018,8 hPa 0,0 l/m 3,2 km/h (1 Bft) SW 235 5 min 0,000 mm 4,0 UV-I 893 W/m 8,2 C 22,9 C 4,0 km/h (1 Bft) 0,00 %
10.07.2015 15:30 22,8 C 36 % 1018,7 hPa 0,0 l/m 4,3 km/h (1 Bft) SW 222 5 min 0,000 mm 4,0 UV-I 897 W/m 6,9 C 22,8 C 7,9 km/h (2 Bft) 0,00 %
10.07.2015 15:35 22,6 C 36 % 1018,5 hPa 0,0 l/m 6,5 km/h (2 Bft) S-SW 212 5 min 0,000 mm 4,0 UV-I 885 W/m 6,8 C 22,6 C 11,9 km/h (2 Bft) 0,00 %
10.07.2015 15:40 22,6 C 37 % 1018,6 hPa 0,0 l/m 7,9 km/h (2 Bft) W-SW 256 5 min 0,000 mm 4,0 UV-I 879 W/m 7,2 C 22,1 C 11,9 km/h (2 Bft) 0,00 %
10.07.2015 15:45 22,8 C 36 % 1018,8 hPa 0,0 l/m 1,8 km/h (1 Bft) N-NO 23 5 min 0,000 mm 4,0 UV-I 895 W/m 6,9 C 22,8 C 4,0 km/h (1 Bft) 0,00 %
10.07.2015 15:50 22,9 C 35 % 1018,8 hPa 0,0 l/m 5,4 km/h (1 Bft) NW 316 5 min 0,000 mm 4,0 UV-I 883 W/m 6,6 C 22,9 C 7,9 km/h (2 Bft) 0,00 %
10.07.2015 15:55 22,8 C 36 % 1018,6 hPa 0,0 l/m 0,0 km/h (0 Bft) SO 142 5 min 0,000 mm 4,0 UV-I 878 W/m 6,9 C 22,8 C 0,0 km/h (0 Bft) 0,00 %
10.07.2015 16:00 22,9 C 34 % 1018,7 hPa 0,0 l/m 2,2 km/h (1 Bft) N 352 5 min 0,000 mm 4,0 UV-I 875 W/m 6,2 C 22,9 C 7,9 km/h (2 Bft) 0,00 %
10.07.2015 16:05 22,8 C 36 % 1018,5 hPa 0,0 l/m 1,8 km/h (1 Bft) N 349 5 min 0,000 mm 3,0 UV-I 866 W/m 6,9 C 22,8 C 4,0 km/h (1 Bft) 0,00 %
10.07.2015 16:10 22,9 C 35 % 1018,5 hPa 0,0 l/m 2,9 km/h (1 Bft) W 273 5 min 0,000 mm 3,0 UV-I 867 W/m 6,6 C 22,9 C 7,9 km/h (2 Bft) 0,00 %
10.07.2015 16:15 23,0 C 34 % 1018,6 hPa 0,0 l/m 1,4 km/h (1 Bft) W 267 5 min 0,000 mm 3,0 UV-I 871 W/m 6,3 C 23,0 C 4,0 km/h (1 Bft) 0,00 %
10.07.2015 16:20 23,2 C 33 % 1018,3 hPa 0,0 l/m 4,0 km/h (1 Bft) NW 315 5 min 0,000 mm 3,0 UV-I 867 W/m 6,0 C 23,2 C 7,9 km/h (2 Bft) 0,00 %
10.07.2015 16:25 23,5 C 33 % 1018,5 hPa 0,0 l/m 2,9 km/h (1 Bft) W-NW 291 5 min 0,000 mm 3,0 UV-I 854 W/m 6,3 C 23,5 C 4,0 km/h (1 Bft) 0,00 %
10.07.2015 16:30 23,6 C 35 % 1018,1 hPa 0,0 l/m 7,9 km/h (2 Bft) W-SW 256 5 min 0,000 mm 3,0 UV-I 862 W/m 7,2 C 23,2 C 11,9 km/h (2 Bft) 0,00 %
10.07.2015 16:35 23,5 C 32 % 1018,4 hPa 0,0 l/m 0,0 km/h (0 Bft) NO 43 5 min 0,000 mm 3,0 UV-I 844 W/m 5,8 C 23,5 C 0,0 km/h (0 Bft) 0,00 %
10.07.2015 16:40 23,5 C 33 % 1018,2 hPa 0,0 l/m 1,4 km/h (1 Bft) O-NO 66 5 min 0,000 mm 3,0 UV-I 840 W/m 6,3 C 23,5 C 4,0 km/h (1 Bft) 0,00 %
10.07.2015 16:45 23,5 C 33 % 1017,8 hPa 0,0 l/m 0,0 km/h (0 Bft) NO 44 5 min 0,000 mm 3,0 UV-I 844 W/m 6,3 C 23,5 C 0,0 km/h (0 Bft) 0,00 %
10.07.2015 16:50 23,4 C 32 % 1018,1 hPa 0,0 l/m 5,8 km/h (2 Bft) NW 316 5 min 0,000 mm 3,0 UV-I 817 W/m 5,8 C 23,4 C 7,9 km/h (2 Bft) 0,00 %
10.07.2015 16:55 23,3 C 34 % 1018,1 hPa 0,0 l/m 1,4 km/h (1 Bft) O-NO 58 5 min 0,000 mm 3,0 UV-I 813 W/m 6,6 C 23,3 C 4,0 km/h (1 Bft) 0,00 %
10.07.2015 17:00 23,3 C 33 % 1018,1 hPa 0,0 l/m 0,0 km/h (0 Bft) O 95 5 min 0,000 mm 3,0 UV-I 803 W/m 6,1 C 23,3 C 0,0 km/h (0 Bft) 0,00 %
10.07.2015 17:05 23,5 C 32 % 1017,8 hPa 0,0 l/m 3,2 km/h (1 Bft) NW 321 5 min 0,000 mm 2,0 UV-I 800 W/m 5,8 C 23,5 C 7,9 km/h (2 Bft) 0,00 %
10.07.2015 17:10 23,5 C 33 % 1017,8 hPa 0,0 l/m 0,0 km/h (0 Bft) NO 45 5 min 0,000 mm 2,0 UV-I 773 W/m 6,3 C 23,5 C 0,0 km/h (0 Bft) 0,00 %
10.07.2015 17:15 23,5 C 32 % 1017,8 hPa 0,0 l/m 0,0 km/h (0 Bft) NO 47 5 min 0,000 mm 2,0 UV-I 763 W/m 5,8 C 23,5 C 0,0 km/h (0 Bft) 0,00 %
10.07.2015 17:20 23,4 C 34 % 1017,8 hPa 0,0 l/m 4,3 km/h (1 Bft) W-NW 299 5 min 0,000 mm 2,0 UV-I 766 W/m 6,6 C 23,4 C 7,9 km/h (2 Bft) 0,00 %
10.07.2015 17:25 23,1 C 33 % 1017,7 hPa 0,0 l/m 6,5 km/h (2 Bft) NW 315 5 min 0,000 mm 2,0 UV-I 756 W/m 5,9 C 23,1 C 7,9 km/h (2 Bft) 0,00 %
10.07.2015 17:30 23,0 C 33 % 1017,8 hPa 0,0 l/m 2,2 km/h (1 Bft) W 277 5 min 0,000 mm 2,0 UV-I 738 W/m 5,9 C 23,0 C 4,0 km/h (1 Bft) 0,00 %
10.07.2015 17:35 23,2 C 32 % 1017,5 hPa 0,0 l/m 5,8 km/h (2 Bft) W 268 5 min 0,000 mm 2,0 UV-I 733 W/m 5,6 C 23,2 C 7,9 km/h (2 Bft) 0,00 %
10.07.2015 17:40 23,2 C 32 % 1017,7 hPa 0,0 l/m 3,2 km/h (1 Bft) W 278 5 min 0,000 mm 1,0 UV-I 715 W/m 5,6 C 23,2 C 7,9 km/h (2 Bft) 0,00 %
10.07.2015 17:45 23,2 C 32 % 1017,6 hPa 0,0 l/m 0,0 km/h (0 Bft) N 354 5 min 0,000 mm 1,0 UV-I 707 W/m 5,6 C 23,2 C 0,0 km/h (0 Bft) 0,00 %
10.07.2015 17:50 23,3 C 32 % 1017,8 hPa 0,0 l/m 1,8 km/h (1 Bft) N-NW 340 5 min 0,000 mm 1,0 UV-I 690 W/m 5,7 C 23,3 C 7,9 km/h (2 Bft) 0,00 %
10.07.2015 17:55 23,4 C 34 % 1017,5 hPa 0,0 l/m 0,0 km/h (0 Bft) N-NO 23 5 min 0,000 mm 1,0 UV-I 675 W/m 6,6 C 23,4 C 0,0 km/h (0 Bft) 0,00 %
10.07.2015 18:00 23,5 C 31 % 1017,6 hPa 0,0 l/m 0,7 km/h (0 Bft) N-NO 32 5 min 0,000 mm 1,0 UV-I 659 W/m 5,4 C 23,5 C 4,0 km/h (1 Bft) 0,00 %
10.07.2015 18:05 23,7 C 31 % 1017,6 hPa 0,0 l/m 7,2 km/h (2 Bft) NW 317 5 min 0,000 mm 1,0 UV-I 642 W/m 5,6 C 23,5 C 7,9 km/h (2 Bft) 0,00 %
10.07.2015 18:10 23,5 C 31 % 1017,8 hPa 0,0 l/m 10,8 km/h (2 Bft) W 264 5 min 0,000 mm 1,0 UV-I 639 W/m 5,4 C 22,3 C 11,9 km/h (2 Bft) 0,00 %
10.07.2015 18:15 23,1 C 32 % 1017,7 hPa 0,0 l/m 0,0 km/h (0 Bft) N 350 5 min 0,000 mm 1,0 UV-I 621 W/m 5,5 C 23,1 C 0,0 km/h (0 Bft) 0,00 %
10.07.2015 18:20 23,1 C 32 % 1017,8 hPa 0,0 l/m 0,7 km/h (0 Bft) NW 316 5 min 0,000 mm 1,0 UV-I 597 W/m 5,5 C 23,1 C 4,0 km/h (1 Bft) 0,00 %
10.07.2015 18:25 23,1 C 32 % 1017,6 hPa 0,0 l/m 2,2 km/h (1 Bft) W 261 5 min 0,000 mm 1,0 UV-I 581 W/m 5,5 C 23,1 C 4,0 km/h (1 Bft) 0,00 %
10.07.2015 18:30 23,1 C 32 % 1017,5 hPa 0,0 l/m 4,0 km/h (1 Bft) N 349 5 min 0,000 mm 1,0 UV-I 546 W/m 5,5 C 23,1 C 7,9 km/h (2 Bft) 0,00 %
10.07.2015 18:35 23,0 C 34 % 1017,5 hPa 0,0 l/m 0,0 km/h (0 Bft) N-NO 27 5 min 0,000 mm 1,0 UV-I 502 W/m 6,3 C 23,0 C 0,0 km/h (0 Bft) 0,00 %
10.07.2015 18:40 22,9 C 33 % 1017,5 hPa 0,0 l/m 4,3 km/h (1 Bft) W-SW 256 5 min 0,000 mm 1,0 UV-I 477 W/m 5,8 C 22,9 C 7,9 km/h (2 Bft) 0,00 %
10.07.2015 18:45 23,0 C 33 % 1017,5 hPa 0,0 l/m 0,4 km/h (0 Bft) SW 233 5 min 0,000 mm 1,0 UV-I 443 W/m 5,9 C 23,0 C 4,0 km/h (1 Bft) 0,00 %
10.07.2015 18:50 23,1 C 32 % 1017,6 hPa 0,0 l/m 0,0 km/h (0 Bft) N 351 5 min 0,000 mm 1,0 UV-I 413 W/m 5,5 C 23,1 C 0,0 km/h (0 Bft) 0,00 %
10.07.2015 18:55 23,0 C 33 % 1017,4 hPa 0,0 l/m 5,8 km/h (2 Bft) W-SW 258 5 min 0,000 mm 1,0 UV-I 392 W/m 5,9 C 23,0 C 7,9 km/h (2 Bft) 0,00 %
10.07.2015 19:00 22,8 C 34 % 1017,6 hPa 0,0 l/m 6,8 km/h (2 Bft) W-SW 254 5 min 0,000 mm 1,0 UV-I 359 W/m 6,1 C 22,7 C 11,9 km/h (2 Bft) 0,00 %
10.07.2015 19:05 22,6 C 34 % 1017,5 hPa 0,0 l/m 0,0 km/h (0 Bft) N-NO 25 5 min 0,000 mm 1,0 UV-I 336 W/m 5,9 C 22,6 C 0,0 km/h (0 Bft) 0,00 %
10.07.2015 19:10 22,7 C 35 % 1017,5 hPa 0,0 l/m 0,0 km/h (0 Bft) N-NO 19 5 min 0,000 mm 1,0 UV-I 311 W/m 6,4 C 22,7 C 0,0 km/h (0 Bft) 0,00 %
10.07.2015 19:15 22,9 C 35 % 1017,4 hPa 0,0 l/m 0,0 km/h (0 Bft) N-NO 31 5 min 0,000 mm 1,0 UV-I 283 W/m 6,6 C 22,9 C 0,0 km/h (0 Bft) 0,00 %
10.07.2015 19:20 22,7 C 34 % 1017,3 hPa 0,0 l/m 0,0 km/h (0 Bft) N 4 5 min 0,000 mm 1,0 UV-I 258 W/m 6,0 C 22,7 C 0,0 km/h (0 Bft) 0,00 %
10.07.2015 19:25 22,7 C 35 % 1017,3 hPa 0,0 l/m 0,0 km/h (0 Bft) NO 46 5 min 0,000 mm 1,0 UV-I 222 W/m 6,4 C 22,7 C 0,0 km/h (0 Bft) 0,00 %
10.07.2015 19:30 22,7 C 36 % 1017,4 hPa 0,0 l/m 0,0 km/h (0 Bft) NO 49 5 min 0,000 mm 1,0 UV-I 162 W/m 6,9 C 22,7 C 0,0 km/h (0 Bft) 0,00 %
10.07.2015 19:35 22,7 C 38 % 1017,4 hPa 0,0 l/m 0,0 km/h (0 Bft) N 9 5 min 0,000 mm 1,0 UV-I 131 W/m 7,6 C 22,7 C 0,0 km/h (0 Bft) 0,00 %
10.07.2015 19:40 22,6 C 38 % 1017,4 hPa 0,0 l/m 0,0 km/h (0 Bft) NO 36 0 min 0,000 mm 1,0 UV-I 42 W/m 7,6 C 22,6 C 0,0 km/h (0 Bft) 0,00 %
10.07.2015 19:45 22,7 C 38 % 1017,4 hPa 0,0 l/m 0,0 km/h (0 Bft) NO 54 0 min 0,000 mm 1,0 UV-I 31 W/m 7,6 C 22,7 C 0,0 km/h (0 Bft) 0,00 %
10.07.2015 19:50 22,6 C 38 % 1017,4 hPa 0,0 l/m 0,0 km/h (0 Bft) NO 41 0 min 0,000 mm 0,0 UV-I 24 W/m 7,6 C 22,6 C 0,0 km/h (0 Bft) 0,00 %
10.07.2015 19:55 22,5 C 39 % 1017,6 hPa 0,0 l/m 0,0 km/h (0 Bft) NO 45 0 min 0,000 mm 0,0 UV-I 18 W/m 7,8 C 22,5 C 0,0 km/h (0 Bft) 0,00 %
10.07.2015 20:00 22,2 C 43 % 1017,5 hPa 0,0 l/m 0,0 km/h (0 Bft) N-NO 26 0 min 0,000 mm 0,0 UV-I 9 W/m 9,0 C 22,2 C 0,0 km/h (0 Bft) 0,00 %
10.07.2015 20:05 21,9 C 40 % 1017,6 hPa 0,0 l/m 0,0 km/h (0 Bft) NO 55 0 min 0,000 mm 0,0 UV-I 4 W/m 7,7 C 21,9 C 0,0 km/h (0 Bft) 0,00 %
10.07.2015 20:10 21,7 C 40 % 1017,5 hPa 0,0 l/m 0,0 km/h (0 Bft) NO 44 0 min 0,000 mm 0,0 UV-I 0 W/m 7,5 C 21,7 C 0,0 km/h (0 Bft) 0,00 %
10.07.2015 20:15 21,5 C 40 % 1017,6 hPa 0,0 l/m 0,0 km/h (0 Bft) N-NO 25 0 min 0,000 mm 0,0 UV-I 0 W/m 7,3 C 21,5 C 0,0 km/h (0 Bft) 0,00 %
10.07.2015 20:20 21,1 C 41 % 1017,8 hPa 0,0 l/m 0,0 km/h (0 Bft) NO 37 0 min 0,000 mm 0,0 UV-I 8 W/m 7,3 C 21,1 C 0,0 km/h (0 Bft) 0,00 %
10.07.2015 20:25 20,7 C 41 % 1017,7 hPa 0,0 l/m 0,0 km/h (0 Bft) NO 50 0 min 0,000 mm 0,0 UV-I 0 W/m 7,0 C 20,7 C 0,0 km/h (0 Bft) 0,00 %
10.07.2015 20:30 20,3 C 43 % 1017,9 hPa 0,0 l/m 0,0 km/h (0 Bft) NO 45 0 min 0,000 mm 0,0 UV-I 0 W/m 7,3 C 20,3 C 0,0 km/h (0 Bft) 0,00 %
10.07.2015 20:35 19,9 C 48 % 1018,1 hPa 0,0 l/m 0,0 km/h (0 Bft) NO 46 0 min 0,000 mm 0,0 UV-I 0 W/m 8,6 C 19,9 C 0,0 km/h (0 Bft) 0,00 %
10.07.2015 20:40 19,6 C 50 % 1018,1 hPa 0,0 l/m 0,0 km/h (0 Bft) NO 47 0 min 0,000 mm 0,0 UV-I 0 W/m 8,9 C 19,6 C 0,0 km/h (0 Bft) 0,00 %
10.07.2015 20:45 19,1 C 52 % 1018,1 hPa 0,0 l/m 0,0 km/h (0 Bft) NO 41 0 min 0,000 mm 0,0 UV-I 0 W/m 9,0 C 19,1 C 0,0 km/h (0 Bft) 0,00 %
10.07.2015 20:50 18,5 C 53 % 1018,2 hPa 0,0 l/m 0,0 km/h (0 Bft) NO 45 0 min 0,000 mm 0,0 UV-I 0 W/m 8,7 C 18,5 C 0,0 km/h (0 Bft) 0,00 %
10.07.2015 20:55 17,9 C 53 % 1018,5 hPa 0,0 l/m 0,0 km/h (0 Bft) NO 44 0 min 0,000 mm 0,0 UV-I 0 W/m 8,2 C 17,9 C 0,0 km/h (0 Bft) 0,00 %
10.07.2015 21:00 17,4 C 52 % 1018,4 hPa 0,0 l/m 0,0 km/h (0 Bft) NO 41 0 min 0,000 mm 0,0 UV-I 0 W/m 7,4 C 17,4 C 0,0 km/h (0 Bft) 0,00 %
10.07.2015 21:05 17,1 C 53 % 1018,4 hPa 0,0 l/m 0,0 km/h (0 Bft) O-NO 58 0 min 0,000 mm 0,0 UV-I 0 W/m 7,4 C 17,1 C 0,0 km/h (0 Bft) 0,00 %
10.07.2015 21:10 16,8 C 57 % 1018,7 hPa 0,0 l/m 0,0 km/h (0 Bft) NO 53 0 min 0,000 mm 0,0 UV-I 0 W/m 8,2 C 16,8 C 0,0 km/h (0 Bft) 0,00 %
10.07.2015 21:15 16,5 C 59 % 1018,6 hPa 0,0 l/m 0,0 km/h (0 Bft) O-NO 65 0 min 0,000 mm 0,0 UV-I 0 W/m 8,5 C 16,5 C 0,0 km/h (0 Bft) 0,00 %
10.07.2015 21:20 16,1 C 61 % 1018,7 hPa 0,0 l/m 0,0 km/h (0 Bft) O-NO 59 0 min 0,000 mm 0,0 UV-I 0 W/m 8,6 C 16,1 C 0,0 km/h (0 Bft) 0,00 %
10.07.2015 21:25 15,9 C 61 % 1018,9 hPa 0,0 l/m 0,0 km/h (0 Bft) O-NO 69 0 min 0,000 mm 0,0 UV-I 0 W/m 8,4 C 15,9 C 0,0 km/h (0 Bft) 0,00 %
10.07.2015 21:30 15,6 C 60 % 1018,9 hPa 0,0 l/m 0,0 km/h (0 Bft) O-NO 63 0 min 0,000 mm 0,0 UV-I 0 W/m 7,9 C 15,6 C 0,0 km/h (0 Bft) 0,00 %
10.07.2015 21:35 15,5 C 60 % 1019,1 hPa 0,0 l/m 0,0 km/h (0 Bft) NO 48 0 min 0,000 mm 0,0 UV-I 0 W/m 7,8 C 15,5 C 0,0 km/h (0 Bft) 0,00 %
10.07.2015 21:40 15,3 C 60 % 1019,3 hPa 0,0 l/m 0,0 km/h (0 Bft) NO 50 0 min 0,000 mm 0,0 UV-I 0 W/m 7,6 C 15,3 C 0,0 km/h (0 Bft) 0,00 %
10.07.2015 21:45 15,2 C 62 % 1019,2 hPa 0,0 l/m 0,0 km/h (0 Bft) O-NO 60 0 min 0,000 mm 0,0 UV-I 0 W/m 8,0 C 15,2 C 0,0 km/h (0 Bft) 0,00 %
10.07.2015 21:50 15,0 C 63 % 1019,2 hPa 0,0 l/m 0,0 km/h (0 Bft) O-NO 66 0 min 0,000 mm 0,0 UV-I 0 W/m 8,0 C 15,0 C 0,0 km/h (0 Bft) 0,00 %
10.07.2015 21:55 14,9 C 63 % 1019,2 hPa 0,0 l/m 0,0 km/h (0 Bft) O-NO 71 0 min 0,000 mm 0,0 UV-I 0 W/m 7,9 C 14,9 C 0,0 km/h (0 Bft) 0,00 %
10.07.2015 22:00 14,8 C 63 % 1019,3 hPa 0,0 l/m 0,0 km/h (0 Bft) O-NO 73 0 min 0,000 mm 0,0 UV-I 0 W/m 7,8 C 14,8 C 0,0 km/h (0 Bft) 0,00 %
10.07.2015 22:05 14,7 C 62 % 1019,4 hPa 0,0 l/m 0,0 km/h (0 Bft) O-NO 64 0 min 0,000 mm 0,0 UV-I 0 W/m 7,5 C 14,7 C 0,0 km/h (0 Bft) 0,00 %
10.07.2015 22:10 14,6 C 65 % 1019,4 hPa 0,0 l/m 0,0 km/h (0 Bft) NO 42 0 min 0,000 mm 0,0 UV-I 0 W/m 8,1 C 14,6 C 0,0 km/h (0 Bft) 0,00 %
10.07.2015 22:15 14,4 C 65 % 1019,3 hPa 0,0 l/m 0,0 km/h (0 Bft) NO 51 0 min 0,000 mm 0,0 UV-I 0 W/m 7,9 C 14,4 C 0,0 km/h (0 Bft) 0,00 %
10.07.2015 22:20 14,3 C 67 % 1019,5 hPa 0,0 l/m 0,0 km/h (0 Bft) NO 41 0 min 0,000 mm 0,0 UV-I 0 W/m 8,3 C 14,3 C 0,0 km/h (0 Bft) 0,00 %
10.07.2015 22:25 14,2 C 67 % 1019,5 hPa 0,0 l/m 0,0 km/h (0 Bft) NO 44 0 min 0,000 mm 0,0 UV-I 0 W/m 8,2 C 14,2 C 0,0 km/h (0 Bft) 0,00 %
10.07.2015 22:30 14,0 C 68 % 1019,5 hPa 0,0 l/m 0,0 km/h (0 Bft) NO 37 0 min 0,000 mm 0,0 UV-I 0 W/m 8,2 C 14,0 C 0,0 km/h (0 Bft) 0,00 %
10.07.2015 22:35 13,8 C 70 % 1019,4 hPa 0,0 l/m 0,0 km/h (0 Bft) NO 36 0 min 0,000 mm 0,0 UV-I 0 W/m 8,4 C 13,8 C 0,0 km/h (0 Bft) 0,00 %
10.07.2015 22:40 13,7 C 72 % 1019,5 hPa 0,0 l/m 0,0 km/h (0 Bft) NO 35 0 min 0,000 mm 0,0 UV-I 0 W/m 8,7 C 13,7 C 0,0 km/h (0 Bft) 0,00 %
10.07.2015 22:45 13,5 C 71 % 1019,4 hPa 0,0 l/m 0,0 km/h (0 Bft) NO 39 0 min 0,000 mm 0,0 UV-I 0 W/m 8,3 C 13,5 C 0,0 km/h (0 Bft) 0,00 %
10.07.2015 22:50 13,4 C 70 % 1019,6 hPa 0,0 l/m 0,0 km/h (0 Bft) NO 36 0 min 0,000 mm 0,0 UV-I 0 W/m 8,0 C 13,4 C 0,0 km/h (0 Bft) 0,00 %
10.07.2015 22:55 13,4 C 70 % 1019,7 hPa 0,0 l/m 0,0 km/h (0 Bft) NO 36 0 min 0,000 mm 0,0 UV-I 0 W/m 8,0 C 13,4 C 0,0 km/h (0 Bft) 0,00 %
10.07.2015 23:00 13,4 C 71 % 1019,7 hPa 0,0 l/m 0,0 km/h (0 Bft) NO 36 0 min 0,000 mm 0,0 UV-I 0 W/m 8,3 C 13,4 C 0,0 km/h (0 Bft) 0,00 %
10.07.2015 23:05 13,3 C 73 % 1019,7 hPa 0,0 l/m 0,0 km/h (0 Bft) NO 51 0 min 0,000 mm 0,0 UV-I 0 W/m 8,6 C 13,3 C 0,0 km/h (0 Bft) 0,00 %
10.07.2015 23:10 13,2 C 76 % 1019,8 hPa 0,0 l/m 0,0 km/h (0 Bft) NO 51 0 min 0,000 mm 0,0 UV-I 0 W/m 9,1 C 13,2 C 0,0 km/h (0 Bft) 0,00 %
10.07.2015 23:15 13,1 C 76 % 1019,7 hPa 0,0 l/m 0,0 km/h (0 Bft) NO 51 0 min 0,000 mm 0,0 UV-I 0 W/m 9,0 C 13,1 C 0,0 km/h (0 Bft) 0,00 %
10.07.2015 23:20 12,9 C 76 % 1019,6 hPa 0,0 l/m 0,0 km/h (0 Bft) NO 46 0 min 0,000 mm 0,0 UV-I 0 W/m 8,8 C 12,9 C 0,0 km/h (0 Bft) 0,00 %
10.07.2015 23:25 12,6 C 77 % 1020,0 hPa 0,0 l/m 0,0 km/h (0 Bft) NO 50 0 min 0,000 mm 0,0 UV-I 0 W/m 8,7 C 12,6 C 0,0 km/h (0 Bft) 0,00 %
10.07.2015 23:30 12,4 C 78 % 1019,7 hPa 0,0 l/m 0,0 km/h (0 Bft) NO 36 0 min 0,000 mm 0,0 UV-I 0 W/m 8,7 C 12,4 C 0,0 km/h (0 Bft) 0,00 %
10.07.2015 23:35 12,2 C 78 % 1020,1 hPa 0,0 l/m 0,0 km/h (0 Bft) NO 41 0 min 0,000 mm 0,0 UV-I 0 W/m 8,5 C 12,2 C 0,0 km/h (0 Bft) 0,00 %
10.07.2015 23:40 12,4 C 77 % 1019,8 hPa 0,0 l/m 0,0 km/h (0 Bft) NO 35 0 min 0,000 mm 0,0 UV-I 0 W/m 8,5 C 12,4 C 0,0 km/h (0 Bft) 0,00 %
10.07.2015 23:45 12,7 C 77 % 1020,0 hPa 0,0 l/m 0,0 km/h (0 Bft) NO 45 0 min 0,000 mm 0,0 UV-I 0 W/m 8,8 C 12,7 C 0,0 km/h (0 Bft) 0,00 %
10.07.2015 23:50 12,8 C 77 % 1020,0 hPa 0,0 l/m 0,0 km/h (0 Bft) NO 49 0 min 0,000 mm 0,0 UV-I 0 W/m 8,9 C 12,8 C 0,0 km/h (0 Bft) 0,00 %
10.07.2015 23:55 12,7 C 78 % 1020,0 hPa 0,0 l/m 0,0 km/h (0 Bft) NO 45 0 min 0,000 mm 0,0 UV-I 0 W/m 9,0 C 12,7 C 0,0 km/h (0 Bft) 0,00 %
_ Min-Zeit 05:10 18:00 19:20 - 00:00 - - - - - - 18:00 05:10 00:00 00:00
Minimum _ 9,6 C 31 % 1017,3 hPa - 0,0 km/h (0 Bft) - - - - - - 5,4 C 9,6 C 0,0 km/h (0 Bft) 0,00 %
_ Max-Zeit 18:05 02:35 02:35 00:00 15:10 - - 05:35 00:00 12:35 14:50 00:00 16:25 11:35 00:00
Maximum _ 23,7 C 93 % 1023,0 hPa 0,0 l/m 11,5 km/h
W-SW (2 Bft)
- - 5 min 0,000 mm 6,0 UV-I 914 W/m 10,3 C 23,5 C 15,8 km/h
N-NW (3 Bft)
0,00 %
Durchschnitt _ 17,1 C 60 % 1020,4 hPa #0,0 l/m 1,4 km/h (1 Bft) W-SW - #13:35 h #0,000 mm 2,9 UV-I 576 W/m 8,1 C 17,1 C 2,7 km/h (1 Bft) 0,00 %